Location: Chillicothe
(39.7950°N, 93.5520°W)
Time: 03:57:46
(UTC-05:00)

Vanguard 1 - All Passes

Search period start: 14 October 2019 00:00
Search period end: 24 October 2019 00:00
Orbit: 653 x 3830 km, 34.3° (Epoch: 13 October)

Date Brightness Start Highest point End Pass type
(mag) Time Alt. Az. Time Alt. Az. Time Alt. Az.
14 Oct - 00:31:44 10° W 00:47:47 72° S 01:11:15 10° ESE visible
14 Oct - 02:54:34 10° W 03:13:43 52° SSW 03:35:14 10° SE visible
14 Oct - 05:22:15 10° W 05:37:39 23° SW 05:52:15 10° S visible
14 Oct - 20:13:17 10° SSW 20:21:52 42° SE 20:36:49 10° E visible
14 Oct - 22:31:54 10° WSW 22:44:04 71° S 23:05:19 10° E visible
15 Oct - 00:52:52 10° W 01:09:15 68° SSW 01:32:36 10° ESE visible
15 Oct - 03:16:09 10° W 03:34:50 44° SW 03:55:26 10° SSE visible
15 Oct - 05:46:36 10° W 05:58:13 16° SW 06:09:24 10° SSW visible
15 Oct - 18:19:06 10° SSE 18:23:20 15° SE 18:28:47 10° E daylight
15 Oct - 20:33:38 10° SW 20:42:33 51° SSE 20:58:41 10° E visible
15 Oct - 22:52:49 10° WSW 23:05:23 73° S 23:27:04 10° E visible
16 Oct - 01:14:02 10° W 01:30:41 63° SSW 01:53:44 10° SE visible
16 Oct - 03:37:57 10° W 03:55:51 37° SW 04:15:13 10° SSE visible
16 Oct - 06:16:51 10° WSW 06:18:47 10° SW 06:20:42 10° SW visible
16 Oct - 18:37:50 10° S 18:43:32 22° SE 18:51:52 10° E daylight
16 Oct - 20:54:10 10° SW 21:03:25 58° SSE 21:20:30 10° E visible
16 Oct - 23:13:47 10° W 23:26:45 72° S 23:48:45 10° ESE visible
17 Oct - 01:35:16 10° W 01:52:03 57° SSW 02:14:37 10° SE visible
17 Oct - 04:00:11 10° W 04:16:46 30° SW 04:34:27 10° S visible
17 Oct - 18:57:26 10° SSW 19:03:51 29° SE 19:14:10 10° E visible
17 Oct - 21:14:52 10° WSW 21:24:25 64° SSE 21:42:16 10° E visible
17 Oct - 23:34:48 10° W 23:48:08 70° S 00:10:19 10° ESE visible
18 Oct - 01:56:36 10° W 02:13:19 50° SSW 02:35:11 10° SE visible
18 Oct - 04:23:05 10° W 04:37:36 23° SW 04:52:52 10° S visible
18 Oct - 19:17:28 10° SSW 19:24:20 38° SE 19:36:07 10° E visible
18 Oct - 21:35:39 10° WSW 21:45:33 69° S 22:04:02 10° E visible
18 Oct - 23:55:51 10° W 00:09:31 66° SSW 00:31:43 10° ESE visible
19 Oct - 02:18:05 10° W 02:34:31 42° SSW 02:55:23 10° SSE visible
19 Oct - 04:47:24 10° WSW 04:58:25 16° SW 05:09:48 10° SSW visible
19 Oct - 17:24:34 10° SE 17:26:16 11° SE 17:28:07 10° ESE daylight
19 Oct - 19:37:48 10° SW 19:44:59 46° SSE 19:57:55 10° E visible
19 Oct - 21:56:31 10° WSW 22:06:45 70° S 22:25:47 10° E visible
20 Oct - 00:16:56 10° W 00:30:52 60° SSW 00:52:53 10° SE visible
20 Oct - 02:39:51 10° W 02:55:39 35° SW 03:15:07 10° SSE visible
20 Oct - 17:42:23 10° S 17:46:30 17° SE 17:52:00 10° E daylight
20 Oct - 19:58:19 10° SW 20:05:47 55° SSE 20:19:38 10° E visible
20 Oct - 22:17:25 10° W 22:28:00 70° S 22:47:27 10° ESE visible
21 Oct - 00:38:05 10° W 00:52:12 54° SSW 01:13:47 10° SE visible
21 Oct - 03:02:01 10° W 03:16:43 28° SW 03:34:15 10° S visible
21 Oct - 18:01:50 10° SSW 18:06:51 25° SE 18:14:19 10° E daylight
21 Oct - 20:18:58 10° WSW 20:26:43 61° SSE 20:41:20 10° E visible
21 Oct - 22:38:21 10° W 22:49:16 67° S 23:09:01 10° ESE visible
22 Oct - 00:59:21 10° W 01:13:28 47° SSW 01:34:21 10° SE visible
22 Oct - 03:24:57 10° W 03:37:44 21° SW 03:52:29 10° S visible
22 Oct - 18:21:49 10° SSW 18:27:21 33° SE 18:36:12 10° E daylight
22 Oct - 20:39:44 10° WSW 20:47:45 65° S 21:03:01 10° E visible
22 Oct - 22:59:21 10° W 23:10:33 62° SSW 23:30:25 10° ESE visible
23 Oct - 01:20:48 10° W 01:34:43 39° SSW 01:54:32 10° SSE visible
23 Oct - 03:49:28 10° WSW 03:58:46 15° SW 04:08:58 10° SSW visible
23 Oct - 18:42:08 10° SW 18:47:57 42° SSE 18:57:54 10° E visible
23 Oct - 21:00:33 10° WSW 21:08:51 67° S 21:24:40 10° E visible
23 Oct - 23:20:22 10° W 23:31:49 56° SSW 23:51:35 10° SE visible
